COSMOS 1275 DEB

Satellite information

Favourite Embed

Satellite Type and Status

DEBRISIN ORBIT

Key statistics

Satellite COSMOS 1275 DEB at a glance.

Uptime

16045

Days in orbit

Revolutions

≈ 14.1

Per day

Orbit

LEO

Low Earth Orbit

Inclination

83.1

Latest

Satellite identification and parameters

Extended collection of information and parameters for COSMOS 1275 DEB.

Object identification

Identified? True

Debris? True

Object name: COSMOS 1275 DEB

International designator: 1981-053SK

Object number (NORAD): 42171

Object ID (CCSDS): 42171

Country: COMMONWEALTH OF INDEPENDENT STATES (CIS)

Current information (Y/N): Y

RCS size: SMALL

Orbital parameters

Period: 101.776 minutes

Inclination: 83.084 deg

SMA: 7220.907 km

Apoapsis: 877.262 km

Periapsis: 808.282 km

RAAN: 183.1047 deg

Eccentricy: 0.0047764

Argument of periapsis: 135.4265 deg

Mean anomaly: 225.0771 deg

Mean motion: 14.14865481 rev/day

Mean motion (dot): 0.00003497 rev/day2

B* drag term: 0.0017836 1/REarth

Two-line elements (TLE)

Creation date: May 8, 2025, 10:36 p.m.

Reference frame: TEME

Reference center: EARTH

Epoch: May 8, 2025, 10:21 a.m. UTC

TLE line 0: 0 COSMOS 1275 DEB

TLE line 1: 1 42171U 81053SK 25128.43189435 .00003497 00000-0 17836-2 0 9997

TLE line 2: 2 42171 83.0840 183.1047 0047764 135.4265 225.0771 14.14865481 91666

Live tracking on map

Real-time ground track for satellite COSMOS 1275 DEB.

In-orbit conjunctions

A list of the most updated potential collisions computed for object COSMOS 1275 DEB.

Target Orbit TCA Probability of collision Miss distance Type
COSMOS 1275 DEB LEO 2025-03-24 08:49:45 0.0002280419 62.0 (m) DEBRIS

Associated space launch

Navigation satellite providing location information for the Tsiklon-B navigation system

COSMOS 1275 DEB was lifted into orbit during the mission ‘Kosmos-3M | Parus 27’, on board a Kosmos-3M space rocket.

The launch took place on June 4, 1981, 3:41 p.m. from 132/2.

For more information about the launch, click the button.

Launch to space Kosmos-3M | Parus 27
Kosmos-3M | Parus 27

Agency: N/A

Status: Launch Successful

Launch date: June 4, 1981, 3:41 p.m. UTC

Rocket: Kosmos-3M

Launch pad: 132/2

Location: Plesetsk Cosmodrome, Russian Federation

...

Latest news about this satellite

There are no fresh news available about this satellite. Check back as we update our databases every day.


Newsletter sign-up

Weekly statistics, charts and insights to help you stay on top of the space industry.